• In Belgium
  • List of Countries
  • For 7 days
  • Water Temperature
  • Satellite Maps
  • Weather Map
  • Weather Widgets
  • user-avatar
    Login

    Hourly Weather Bilzen

    Today, 22 August, Wednesday

    Time Temperature Precipitation Wind Pressure Humidity
    00:00 +20°C° 0 mm 1 mps 759 mmHg 80%
    01:00 +20°C° 0 mm 1 mps 758 mmHg 81%
    02:00 +19°C° 0 mm 1 mps 758 mmHg 82%
    03:00 +19°C° 0 mm 1 mps 758 mmHg 83%
    04:00 +20°C° 0 mm 1 mps 758 mmHg 82%
    05:00 +20°C° 0 mm 1 mps 758 mmHg 80%
    06:00 +21°C° 0 mm 1 mps 758 mmHg 78%
    07:00 +23°C° 0 mm 1 mps 758 mmHg 72%
    08:00 +25°C° 0 mm 1 mps 758 mmHg 65%
    09:00 +27°C° 0 mm 1 mps 758 mmHg 58%
    10:00 +28°C° 0 mm 1 mps 757 mmHg 56%
    11:00 +28°C° 0 mm 1 mps 757 mmHg 54%
    12:00 +29°C° 0 mm 2 mps 757 mmHg 52%
    13:00 +29°C° 0 mm 2 mps 757 mmHg 53%
    14:00 +29°C° 0 mm 2 mps 756 mmHg 54%
    15:00 +28°C° 0 mm 2 mps 756 mmHg 54%
    16:00 +27°C° 0 mm 2 mps 756 mmHg 58%
    17:00 +27°C° 0 mm 2 mps 756 mmHg 62%
    18:00 +26°C° 0 mm 2 mps 756 mmHg 66%
    19:00 +24°C° 0 mm 2 mps 756 mmHg 71%
    20:00 +22°C° 0 mm 1 mps 757 mmHg 77%
    21:00 +21°C° 0 mm 1 mps 757 mmHg 82%
    22:00 +20°C° 0 mm 1 mps 757 mmHg 85%
    23:00 +20°C° 0 mm 1 mps 757 mmHg 87%

    Tomorrow, 23 August, Thursday

    Time Temperature Precipitation Wind Pressure Humidity
    00:00 +19°C° 0 mm 1 mps 757 mmHg 89%
    01:00 +19°C° 0 mm 1 mps 756 mmHg 90%
    02:00 +18°C° 0 mm 1 mps 756 mmHg 91%
    03:00 +18°C° 0 mm 1 mps 756 mmHg 92%
    04:00 +19°C° 0 mm 1 mps 756 mmHg 90%
    05:00 +19°C° 0 mm 1 mps 756 mmHg 89%
    06:00 +20°C° 0 mm 1 mps 755 mmHg 87%
    07:00 +20°C° 0 mm 2 mps 755 mmHg 79%
    08:00 +23°C° 0 mm 2 mps 755 mmHg 72%
    09:00 +25°C° 0 mm 2 mps 755 mmHg 64%
    10:00 +26°C° 0 mm 3 mps 755 mmHg 61%
    11:00 +27°C° 0 mm 3 mps 754 mmHg 57%
    12:00 +28°C° 0 mm 4 mps 754 mmHg 53%
    13:00 +28°C° 0.1 mm 4 mps 754 mmHg 54%
    14:00 +28°C° 0.1 mm 4 mps 753 mmHg 54%
    15:00 +28°C° 0.1 mm 4 mps 753 mmHg 54%
    16:00 +27°C° 0.2 mm 4 mps 753 mmHg 61%
    17:00 +25°C° 0.2 mm 4 mps 753 mmHg 68%
    18:00 +24°C° 0.2 mm 3 mps 753 mmHg 75%
    19:00 +21°C° 0.1 mm 3 mps 753 mmHg 81%
    20:00 +20°C° 0.1 mm 3 mps 754 mmHg 87%
    21:00 +18°C° 0.1 mm 2 mps 754 mmHg 93%
    22:00 +18°C° 0 mm 2 mps 754 mmHg 93%
    23:00 +17°C° 0 mm 2 mps 753 mmHg 94%

    Day after tomorrow, 24 August, Friday

    Time Temperature Precipitation Wind Pressure Humidity
    00:00 +16°C° 0 mm 2 mps 753 mmHg 94%
    01:00 +16°C° 0 mm 2 mps 753 mmHg 94%
    02:00 +15°C° 0 mm 2 mps 753 mmHg 94%
    03:00 +14°C° 0 mm 2 mps 753 mmHg 95%
    04:00 +14°C° 0 mm 3 mps 753 mmHg 93%
    05:00 +14°C° 0 mm 3 mps 753 mmHg 92%
    06:00 +14°C° 0 mm 3 mps 753 mmHg 90%
    07:00 +15°C° 0.3 mm 4 mps 753 mmHg 86%
    08:00 +16°C° 0.3 mm 5 mps 753 mmHg 82%
    09:00 +16°C° 0.3 mm 5 mps 754 mmHg 77%
    10:00 +17°C° 0.3 mm 5 mps 754 mmHg 69%
    11:00 +19°C° 0.3 mm 6 mps 754 mmHg 61%
    12:00 +19°C° 0.3 mm 6 mps 754 mmHg 53%
    13:00 +19°C° 0 mm 6 mps 754 mmHg 50%
    14:00 +19°C° 0 mm 6 mps 754 mmHg 47%
    15:00 +19°C° 0 mm 6 mps 754 mmHg 44%
    16:00 +17°C° 0 mm 5 mps 754 mmHg 49%
    17:00 +17°C° 0 mm 4 mps 754 mmHg 54%
    18:00 +16°C° 0 mm 3 mps 754 mmHg 59%
    19:00 +14°C° 0 mm 3 mps 754 mmHg 62%
    20:00 +13°C° 0 mm 3 mps 755 mmHg 65%
    21:00 +12°C° 0 mm 3 mps 755 mmHg 68%
    22:00 +12°C° 0 mm 3 mps 755 mmHg 71%
    23:00 +11°C° 0 mm 3 mps 754 mmHg 74%

    25 August, Saturday

    Time Temperature Precipitation Wind Pressure Humidity
    00:00 +11°C° 0 mm 3 mps 754 mmHg 77%
    01:00 +11°C° 0.1 mm 3 mps 754 mmHg 79%
    02:00 +11°C° 0.1 mm 4 mps 754 mmHg 81%
    03:00 +11°C° 0.1 mm 4 mps 754 mmHg 82%
    04:00 +11°C° 0.2 mm 4 mps 754 mmHg 83%
    05:00 +11°C° 0.2 mm 4 mps 754 mmHg 83%
    06:00 +11°C° 0.2 mm 4 mps 754 mmHg 83%
    07:00 +12°C° 0.1 mm 4 mps 754 mmHg 76%
    08:00 +14°C° 0.1 mm 5 mps 754 mmHg 68%
    09:00 +15°C° 0.1 mm 5 mps 754 mmHg 61%
    10:00 +16°C° 0.3 mm 5 mps 754 mmHg 58%
    11:00 +17°C° 0.3 mm 5 mps 754 mmHg 55%
    12:00 +17°C° 0.3 mm 6 mps 754 mmHg 51%
    13:00 +17°C° 0.4 mm 6 mps 754 mmHg 53%
    14:00 +17°C° 0.4 mm 5 mps 754 mmHg 55%
    15:00 +17°C° 0.4 mm 5 mps 754 mmHg 57%
    16:00 +17°C° 0.2 mm 4 mps 754 mmHg 62%
    17:00 +15°C° 0.2 mm 4 mps 754 mmHg 67%
    18:00 +14°C° 0.2 mm 3 mps 755 mmHg 72%
    19:00 +14°C° 0 mm 2 mps 755 mmHg 76%
    20:00 +13°C° 0 mm 2 mps 755 mmHg 79%
    21:00 +12°C° 0 mm 1 mps 756 mmHg 83%
    22:00 +10°C° 0 mm 2 mps 756 mmHg 84%
    23:00 +10°C° 0 mm 2 mps 756 mmHg 85%

    26 August, Sunday

    Time Temperature Precipitation Wind Pressure Humidity
    00:00 +9°C° 0 mm 2 mps 756 mmHg 86%
    01:00 +9°C° 0 mm 2 mps 756 mmHg 86%
    02:00 +9°C° 0 mm 2 mps 757 mmHg 87%
    03:00 +9°C° 0 mm 2 mps 757 mmHg 87%
    04:00 +9°C° 0 mm 2 mps 757 mmHg 86%
    05:00 +9°C° 0 mm 2 mps 757 mmHg 84%
    06:00 +10°C° 0 mm 2 mps 758 mmHg 83%
    07:00 +13°C° 0 mm 2 mps 758 mmHg 74%
    08:00 +15°C° 0 mm 2 mps 758 mmHg 66%
    09:00 +17°C° 0 mm 2 mps 758 mmHg 57%
    10:00 +19°C° 0 mm 2 mps 758 mmHg 51%
    11:00 +20°C° 0 mm 2 mps 758 mmHg 46%
    12:00 +21°C° 0 mm 2 mps 757 mmHg 40%
    13:00 +21°C° 0 mm 2 mps 757 mmHg 40%
    14:00 +21°C° 0 mm 2 mps 757 mmHg 40%
    15:00 +21°C° 0 mm 2 mps 757 mmHg 40%
    16:00 +21°C° 0 mm 1 mps 757 mmHg 43%
    17:00 +20°C° 0 mm 1 mps 757 mmHg 47%
    18:00 +19°C° 0 mm 1 mps 757 mmHg 50%
    19:00 +18°C° 0 mm 1 mps 757 mmHg 52%
    20:00 +16°C° 0 mm 2 mps 757 mmHg 54%
    21:00 +14°C° 0 mm 2 mps 758 mmHg 57%
    22:00 +15°C° 0 mm 2 mps 758 mmHg 55%
    23:00 +14°C° 0 mm 3 mps 758 mmHg 54%

    27 August, Monday

    Time Temperature Precipitation Wind Pressure Humidity
    00:00 +14°C° 0 mm 3 mps 757 mmHg 53%
    01:00 +14°C° 0.1 mm 3 mps 757 mmHg 53%
    02:00 +14°C° 0.1 mm 3 mps 757 mmHg 54%
    03:00 +14°C° 0.1 mm 3 mps 757 mmHg 55%
    04:00 +14°C° 0.2 mm 3 mps 757 mmHg 61%
    05:00 +13°C° 0.2 mm 3 mps 757 mmHg 66%
    06:00 +13°C° 0.2 mm 3 mps 757 mmHg 72%
    07:00 +13°C° 0.1 mm 3 mps 757 mmHg 71%
    08:00 +14°C° 0.1 mm 4 mps 757 mmHg 69%
    09:00 +14°C° 0.1 mm 4 mps 757 mmHg 68%
    10:00 +15°C° 0 mm 4 mps 757 mmHg 64%
    11:00 +17°C° 0 mm 4 mps 757 mmHg 60%
    12:00 +19°C° 0 mm 4 mps 757 mmHg 57%
    13:00 +19°C° 0 mm 3 mps 757 mmHg 57%
    14:00 +19°C° 0 mm 3 mps 757 mmHg 58%
    15:00 +19°C° 0 mm 2 mps 757 mmHg 59%
    16:00 +19°C° 0 mm 2 mps 757 mmHg 59%
    17:00 +19°C° 0 mm 2 mps 757 mmHg 59%
    18:00 +19°C° 0 mm 2 mps 757 mmHg 60%
    19:00 +19°C° 0 mm 2 mps 757 mmHg 60%
    20:00 +19°C° 0 mm 2 mps 757 mmHg 60%
    21:00 +18°C° 0 mm 2 mps 757 mmHg 60%
    22:00 +18°C° 0 mm 2 mps 757 mmHg 60%
    23:00 +18°C° 0 mm 2 mps 757 mmHg 61%
    Show more